Location: Bermeries
(50.2863°N, 3.7551°E)
Time: 14:48:57
(UTC+00:00)

Cosmos 1315 Rocket - Pass Details

Date: 23 May 2024
Orbit: 515 x 542 km, 81.2° (Epoch: 16 June)

Event Time Altitude Azimuth Distance (km) Brightness Sun altitude
Exits shadow 01:39:59 26° 204° (SSW) 1,051 3.6 -14.4°
Maximum altitude 01:42:02 71° 283° (WNW) 562 2.7 -14.3°
Drops below altitude 10° 01:45:58 10° 8° (N) 1,789 6.6 -13.9°
Sets 01:48:09 0° 11° (N) 2,689 7.8 -13.8°
